Regional Weather Roundup
Issued by NWS

Home | Current Version | Previous Version | Text Only | Print | Product List | Glossary On
Versions: 1 2 3 4 5 6 7 8 9 10 11 12 13 14 15 16 17 18 19 20 21 22 23 24 25 26 27 28 29 30 31 32 33 34 35 36 37 38 39 40 41 42 43 44 45 46 47 48 49 50
000
ASUS42 KFFC 241210
RWRGA
WEATHER ROUNDUP FOR GEORGIA
NATIONAL WEATHER SERVICE PEACHTREE CITY GA
800 AM EDT WED MAY 24 2017

NOTE: "FAIR" INDICATES FEW OR NO CLOUDS BELOW 12,000 FEET WITH NO
SIGNIFICANT WEATHER AND/OR OBSTRUCTIONS TO VISIBILITY.

* = USE WITH CAUTION. THE STATIONS MARKED WITH AN ASTERISK MAY NOT
REPORT WEATHER SUCH AS PRECIPITATION, FOG, OR THUNDER AND ARE NOT
QUALITY CONTROLLED BY NWS.

THE REMARK "TC" DENOTES TEMPERATURE READING IN DEGREES CELSIUS.

GAZ001>058-241300-
NORTH GEORGIA

CITY           SKY/WX    TMP DP  RH WIND       PRES   REMARKS
ATLANTA        CLOUDY    67  64  90 S7        29.59F
6HR MIN TEMP:  66; 6HR MAX TEMP:  67; 6HR PCP: TRACE;

ATHENS         CLOUDY    66  66 100 VRB3      29.62F
6HR MIN TEMP:  64; 6HR MAX TEMP:  66; 6HR PCP:  0.01;

CHAMBLEE       CLOUDY    66  64  93 S5        29.59F
6HR MIN TEMP:  63; 6HR MAX TEMP:  66; 6HR PCP:  0.01;

PEACHTREE CITY CLOUDY    66  64  93 S6        29.60F
6HR MIN TEMP:  65; 6HR MAX TEMP:  67; 6HR PCP: TRACE;

ROME           CLOUDY    65  65 100 CALM      29.56F
6HR MIN TEMP:  63; 6HR MAX TEMP:  65;

WEST ATLANTA   PTSUNNY   67  67 100 S5        29.58F
6HR MIN TEMP:  64; 6HR MAX TEMP:  67; 6HR PCP: TRACE;

GAINESVILLE    CLOUDY    62  62 100 SE6       29.63F FOG
6HR MIN TEMP:  60; 6HR MAX TEMP:  62; 6HR PCP:  0.01;

CARTERSVILLE   PTSUNNY   65  65 100 S3        29.58F
6HR MIN TEMP:  60; 6HR MAX TEMP:  65;



CITY           SKY/WX    TMP DP  RH WIND       PRES   REMARKS
DALTON*        CLOUDY    63  63 100 SE6       29.56F FOG
LAWRENCEVILLE* CLOUDY    64  63  94 CALM      29.61F FOG
MARIETTA       CLOUDY    66  65  96 S5        29.59F FOG
KENNESAW*      PTSUNNY   66  66 100 CALM      29.62F FOG
CANTON*        FOG       63  61  94 CALM      29.60F VSB 1/4
$$

GAZ059>098-102>109-241300-
CENTRAL GEORGIA

CITY           SKY/WX    TMP DP  RH WIND       PRES   REMARKS
AUGUSTA-BUSH   CLOUDY    72  70  93 S6        29.64R
6HR MIN TEMP:  70; 6HR MAX TEMP:  72; 6HR PCP: TRACE;

AUGUSTA-DANIEL CLOUDY    71  67  87 S7        29.64F
6HR MIN TEMP:  69; 6HR MAX TEMP:  71; 6HR PCP: TRACE;

COLUMBUS       CLOUDY    69  67  93 SW6       29.59F
6HR MIN TEMP:  66; 6HR MAX TEMP:  69; 6HR PCP: TRACE;

MACON          CLOUDY    70  68  93 S3        29.63S
6HR MIN TEMP:  68; 6HR MAX TEMP:  70; 6HR PCP:  0.06;

ROBINS AFB     RAIN      70  69  97 S7        29.62S


CITY           SKY/WX    TMP DP  RH WIND       PRES   REMARKS
LAGRANGE*      CLOUDY    66  66 100 CALM      29.60F FOG
SYLVANIA*      CLOUDY    72  72 100 SW3       29.68S
MILLEDGEVILLE* PTSUNNY   70  70 100 CALM      29.63S
$$

GAZ099>101-110>166-241300-
SOUTH GEORGIA

CITY           SKY/WX    TMP DP  RH WIND       PRES   REMARKS
SAVANNAH       PTSUNNY   74  69  85 S8        29.68F
6HR MIN TEMP:  72; 6HR MAX TEMP:  74;

VALDOSTA       CLOUDY    73  71  93 S7        29.68R
6HR MIN TEMP:  72; 6HR MAX TEMP:  74;

ALMA           CLOUDY    74  71  91 S8        29.69R
6HR MIN TEMP:  72; 6HR MAX TEMP:  74;

ST SIMONS      SUNNY     77  71  82 S8        29.71F
6HR MIN TEMP:  73; 6HR MAX TEMP:  77; 6HR PCP: TRACE;

FT STEWART     PTSUNNY   73  70  91 S8        29.67S
ALBANY         PTSUNNY   74  72  93 S6        29.64F
MOODY AFB      PTSUNNY   73  70  89 S7        29.67R
BRUNSWICK      MOSUNNY   77  73  88 S12       29.72S


CITY           SKY/WX    TMP DP  RH WIND       PRES   REMARKS
BAINBRIDGE*    CLOUDY    72  70  94 S6        29.63F
MOULTRIE*      PTSUNNY   73  70  88 S6        29.66F
VIDALIA*       CLOUDY    73  72  94 S9        29.68R
WAYCROSS*      CLOUDY    75  75 100 S9        29.69S
DOUGLAS*       LGT RAIN  72  70  94 S5        29.69S
$$



USA.gov is the U.S. government's official web portal to all federal, state and local government web resources and services.